JAF89K DTTJ-DTNH

Flight info

Callsign JAF89K
Flight time 0h 30m
Altitude 24000
Route BISKO1A BISKO A411 MON G727 ATLEL ATLEL1E
Aircraft B738/M-SDE2E3FGHIRWXY/LB1

Departure

Time 2026-04-24 15:33
Airport Djerba Zarzis International Airport (DTTJ)

Arrival

Time 2026-04-24 16:03
Airport Enfidha - Hammamet International Airport (DTNH)
Time Latitude Longitude Altitude Speed Heading
2026-04-24 15:20 33.87329 10.77724 26 ft 0 kts 178°
2026-04-24 15:27 33.87381 10.77734 30 ft 4 kts 237°
2026-04-24 15:28 33.87388 10.77774 30 ft 0 kts 268°
2026-04-24 15:31 33.87366 10.77275 26 ft 24 kts 269°
2026-04-24 15:32 33.87347 10.76107 18 ft 36 kts 289°
2026-04-24 15:33 33.87564 10.78629 577 ft 180 kts 84°
2026-04-24 15:33 33.90677 10.81074 3658 ft 224 kts
2026-04-24 15:34 33.93585 10.80764 6037 ft 212 kts 358°
2026-04-24 15:35 33.98290 10.80626 8297 ft 240 kts 357°
2026-04-24 15:35 34.01836 10.80518 9851 ft 271 kts 356°
2026-04-24 15:35 34.03774 10.80458 10606 ft 286 kts 357°
2026-04-24 15:36 34.05786 10.80394 11349 ft 299 kts 357°
2026-04-24 15:36 34.10149 10.80256 12899 ft 323 kts 357°
2026-04-24 15:36 34.12402 10.80184 13686 ft 333 kts 357°
2026-04-24 15:37 34.14749 10.80109 14419 ft 341 kts 357°
2026-04-24 15:37 34.17152 10.80032 15149 ft 349 kts 357°
2026-04-24 15:37 34.19600 10.79954 15891 ft 355 kts 356°
2026-04-24 15:37 34.22089 10.79873 16651 ft 360 kts 356°
2026-04-24 15:38 34.24605 10.79792 17429 ft 363 kts 356°
2026-04-24 15:38 34.27143 10.79710 18224 ft 366 kts 356°
2026-04-24 15:38 34.29702 10.79628 18935 ft 368 kts 356°
2026-04-24 15:38 34.32270 10.79545 19653 ft 369 kts 356°
2026-04-24 15:39 34.34819 10.79463 20526 ft 363 kts 356°
2026-04-24 15:39 34.37322 10.79384 21543 ft 355 kts 355°
2026-04-24 15:39 34.39755 10.79306 22547 ft 346 kts 355°
2026-04-24 15:39 34.42132 10.79230 23573 ft 338 kts 354°
2026-04-24 15:40 34.44513 10.79151 23939 ft 346 kts 354°
2026-04-24 15:40 34.46953 10.79067 24081 ft 359 kts 354°
2026-04-24 15:40 34.49512 10.78977 24092 ft 375 kts 355°
2026-04-24 15:40 34.52172 10.78885 24096 ft 390 kts 355°
2026-04-24 15:41 34.54930 10.78792 24100 ft 404 kts 355°
2026-04-24 15:41 34.57782 10.78697 24097 ft 416 kts 355°
2026-04-24 15:41 34.60717 10.78601 24093 ft 428 kts 355°
2026-04-24 15:41 34.63684 10.78505 24088 ft 435 kts 355°
2026-04-24 15:42 34.66739 10.78408 24086 ft 441 kts 355°
2026-04-24 15:42 34.69830 10.78308 24080 ft 446 kts 355°
2026-04-24 15:42 34.72942 10.78208 24058 ft 447 kts 355°
2026-04-24 15:42 34.76040 10.78109 23809 ft 444 kts 355°
2026-04-24 15:43 34.79130 10.78011 23575 ft 442 kts 355°
2026-04-24 15:43 34.82205 10.77911 23305 ft 442 kts 355°
2026-04-24 15:43 34.85273 10.77810 23038 ft 441 kts 355°
2026-04-24 15:43 34.88340 10.77709 22768 ft 440 kts 355°
2026-04-24 15:44 34.91400 10.77607 22387 ft 440 kts 355°
2026-04-24 15:44 34.94411 10.77107 21822 ft 434 kts 342°
2026-04-24 15:44 34.97192 10.75826 21344 ft 431 kts 335°
2026-04-24 15:44 34.99916 10.74309 20852 ft 431 kts 334°
2026-04-24 15:45 35.02618 10.72731 20347 ft 430 kts 333°
2026-04-24 15:45 35.05308 10.71137 19781 ft 430 kts 333°
2026-04-24 15:45 35.07993 10.69534 19181 ft 428 kts 333°
2026-04-24 15:45 35.10667 10.67929 18604 ft 427 kts 333°
2026-04-24 15:46 35.13330 10.66323 17961 ft 425 kts 333°
2026-04-24 15:46 35.15969 10.64726 17307 ft 421 kts 333°
2026-04-24 15:46 35.18579 10.63142 16663 ft 416 kts 333°
2026-04-24 15:46 35.21160 10.61571 16049 ft 412 kts 333°
2026-04-24 15:47 35.23717 10.60010 15427 ft 409 kts 333°
2026-04-24 15:47 35.26248 10.58459 14826 ft 405 kts 333°
2026-04-24 15:47 35.28761 10.56913 14237 ft 403 kts 333°
2026-04-24 15:47 35.31250 10.55380 13621 ft 399 kts 333°
2026-04-24 15:48 35.33721 10.53854 12973 ft 395 kts 333°
2026-04-24 15:48 35.36161 10.52344 12336 ft 391 kts 333°
2026-04-24 15:48 35.38577 10.50847 11707 ft 387 kts 333°
2026-04-24 15:48 35.40944 10.49380 11304 ft 385 kts 333°
2026-04-24 15:49 35.43337 10.47896 11125 ft 386 kts 333°
2026-04-24 15:49 35.45726 10.46415 10761 ft 382 kts 333°
2026-04-24 15:49 35.48090 10.44949 10528 ft 379 kts 333°
2026-04-24 15:49 35.50438 10.43493 10290 ft 379 kts 333°
2026-04-24 15:50 35.52788 10.42037 10054 ft 377 kts 333°
2026-04-24 15:50 35.55122 10.40592 9797 ft 375 kts 333°
2026-04-24 15:50 35.57456 10.39147 9533 ft 373 kts 333°
2026-04-24 15:50 35.59703 10.37754 9254 ft 350 kts 333°
2026-04-24 15:51 35.61808 10.36450 8981 ft 327 kts 333°
2026-04-24 15:51 35.63783 10.35227 8711 ft 309 kts 333°
2026-04-24 15:51 35.65654 10.34072 8438 ft 293 kts 333°
2026-04-24 15:51 35.67428 10.32979 8177 ft 279 kts 333°
2026-04-24 15:52 35.69131 10.31931 7929 ft 270 kts 333°
2026-04-24 15:52 35.70808 10.30902 7685 ft 268 kts 333°
2026-04-24 15:52 35.72468 10.29885 7436 ft 265 kts 333°
2026-04-24 15:52 35.74109 10.28881 7196 ft 263 kts 333°
2026-04-24 15:53 35.75738 10.27882 6969 ft 261 kts 333°
2026-04-24 15:53 35.77363 10.26888 6725 ft 260 kts 333°
2026-04-24 15:53 35.78981 10.25900 6487 ft 259 kts 333°
2026-04-24 15:53 35.80582 10.24925 6241 ft 259 kts 333°
2026-04-24 15:54 35.82211 10.23935 5981 ft 259 kts 333°
2026-04-24 15:54 35.83825 10.22958 5718 ft 258 kts 333°
2026-04-24 15:54 35.85413 10.22000 5471 ft 257 kts 333°
2026-04-24 15:54 35.87033 10.21021 5247 ft 261 kts 333°
2026-04-24 15:55 35.88676 10.20025 4987 ft 264 kts 333°
2026-04-24 15:55 35.90338 10.19017 4737 ft 268 kts 333°
2026-04-24 15:55 35.92009 10.18000 4492 ft 268 kts 333°
2026-04-24 15:55 35.93681 10.16968 4239 ft 269 kts 333°
2026-04-24 15:56 35.95360 10.15915 3989 ft 270 kts 333°
2026-04-24 15:56 35.97032 10.14844 3743 ft 271 kts 333°
2026-04-24 15:56 35.98704 10.13752 3474 ft 272 kts 333°
2026-04-24 15:56 36.00374 10.12642 3239 ft 273 kts 333°
2026-04-24 15:57 36.02037 10.11515 3039 ft 272 kts 333°
2026-04-24 15:57 36.03765 10.10621 2888 ft 268 kts 353°
2026-04-24 15:57 36.04983 10.10595 2790 ft 261 kts 13°
2026-04-24 15:57 36.06814 10.12063 2691 ft 228 kts 63°
2026-04-24 15:58 36.07256 10.13856 2709 ft 211 kts 81°
2026-04-24 15:58 36.07475 10.15598 2596 ft 199 kts 82°
2026-04-24 15:58 36.07634 10.17267 2526 ft 193 kts 85°
2026-04-24 15:58 36.07694 10.18910 2485 ft 190 kts 90°
2026-04-24 15:59 36.07700 10.20519 2447 ft 183 kts 90°
2026-04-24 15:59 36.07693 10.22068 2345 ft 178 kts 90°
2026-04-24 15:59 36.07684 10.23594 2275 ft 175 kts 91°
2026-04-24 15:59 36.07674 10.25085 2191 ft 172 kts 90°
2026-04-24 16:00 36.07666 10.26588 2109 ft 178 kts 91°
2026-04-24 16:00 36.07656 10.28117 2017 ft 176 kts 91°
2026-04-24 16:00 36.07646 10.29614 1991 ft 173 kts 91°
2026-04-24 16:00 36.07639 10.31110 1774 ft 171 kts 91°
2026-04-24 16:01 36.07630 10.32545 1560 ft 162 kts 91°
2026-04-24 16:01 36.07623 10.33867 1372 ft 149 kts 90°
2026-04-24 16:01 36.07616 10.35167 1158 ft 150 kts 91°
2026-04-24 16:01 36.07609 10.36395 955 ft 136 kts 89°
2026-04-24 16:02 36.07603 10.37513 770 ft 127 kts 88°
2026-04-24 16:02 36.07598 10.38644 624 ft 135 kts 88°
2026-04-24 16:02 36.07593 10.39795 415 ft 131 kts 90°
2026-04-24 16:02 36.07591 10.40889 250 ft 123 kts 85°
2026-04-24 16:03 36.07584 10.41917 83 ft 115 kts 87°
2026-04-24 16:03 36.07581 10.42826 25 ft 90 kts 91°
2026-04-24 16:03 36.07580 10.43417 24 ft 53 kts 89°
2026-04-24 16:03 36.07574 10.43837 24 ft 45 kts 90°
2026-04-24 16:04 36.07588 10.44157 28 ft 22 kts 80°
2026-04-24 16:04 36.07629 10.44315 25 ft 19 kts 68°
2026-04-24 16:04 36.07661 10.44382 23 ft 5 kts 55°
2026-04-24 16:04 36.07671 10.44393 23 ft 0 kts 38°
2026-04-24 16:06 36.07736 10.44364 25 ft 13 kts 292°
2026-04-24 16:06 36.07744 10.44229 24 ft 17 kts 269°
2026-04-24 16:06 36.07757 10.43958 28 ft 15 kts 299°
2026-04-24 16:07 36.07853 10.43932 24 ft 15 kts
2026-04-24 16:07 36.07953 10.43932 24 ft 14 kts 359°
2026-04-24 16:07 36.08137 10.44070 24 ft 20 kts 46°
2026-04-24 16:08 36.08237 10.44191 25 ft 20 kts 39°
2026-04-24 16:08 36.08340 10.44103 24 ft 0 kts 279°